Date String (YYYY-MM-DD hh:mm:ss) UTC,Instrument flags,absolute air pressure of the measurement (hPa),sample flow rate (lpm),inlet stack bypass flow (lpm),air temperature of the measurement (°C),ambient temperature measured by the external sensor (°C),aerosol sample conditioner tube jacket temperature (°C),OPC LED temperature (°C),internal box temperature (°C),relative humidity of the measurement (%),span deviation,mass concentration of particles derived from Lorenz-Mie calculation of OPC scattering (μg/m³),mass concentration of particles derived from Lorenz-Mie calculation of OPC scattering (μg/m³),mass concentration of particles derived from Lorenz-Mie calculation of OPC scattering (μg/m³)
DateTimeUTC,F1_M11,P_M11,Q1_M11,Q2_M11,T1_M11,T2_M11,T3_M11,T4_M11,T5_M11,U1_M11,ZSPAN_M11,X2_M11,X0_M11,X1_M11
2023-11-22 14:00:00,SystemResetWarning,0832.2,5.00,000.00,021.3,020.5,000.0,029.6,022.5,9.9,0000.0,0000.72,0002.40,0000.50
2023-11-22 14:01:00,SystemResetWarning,0832.2,5.00,000.00,021.3,020.5,000.0,029.6,022.5,10.0,0000.0,0000.73,0002.23,0000.49
2023-11-22 14:02:00,SystemResetWarning,0832.2,5.00,000.00,021.3,020.5,000.0,029.6,022.5,10.0,0000.0,0000.75,0002.79,0000.48
2023-11-22 14:03:00,SystemResetWarning,0832.2,5.00,000.00,021.3,020.5,000.0,029.6,022.5,10.1,0000.0,0000.90,0003.55,0000.47
2023-11-22 14:04:00,SystemResetWarning,0832.2,5.00,000.00,021.3,020.5,000.0,029.6,022.5,10.2,0000.0,0000.92,0003.64,0000.45
2023-11-22 14:05:00,SystemResetWarning,0832.2,5.00,000.00,021.3,020.5,000.0,029.6,022.6,10.2,0000.0,0000.89,0003.64,0000.43
2023-11-22 14:06:00,SystemResetWarning,0832.2,5.00,000.00,021.3,020.5,000.0,029.6,022.6,10.2,0000.0,0000.88,0004.23,0000.41
2023-11-22 14:07:00,SystemResetWarning,0832.2,4.99,000.00,021.3,020.5,000.0,029.6,022.6,10.2,0000.0,0000.83,0004.18,0000.40
2023-11-22 14:08:00,SystemResetWarning,0832.2,5.00,000.00,021.3,020.5,000.0,029.6,022.5,10.2,0000.0,0000.80,0004.12,0000.38
2023-11-22 14:09:00,SystemResetWarning,0832.2,5.00,000.00,021.3,020.5,000.0,029.6,022.5,10.2,0000.0,0000.79,0004.12,0000.37
2023-11-22 14:10:00,SystemResetWarning,0832.2,5.00,000.00,021.3,020.4,000.0,029.6,022.5,10.1,0000.0,0000.78,0003.85,0000.37
2023-11-22 14:11:00,SystemResetWarning,0832.1,5.00,000.00,021.3,020.4,000.0,029.6,022.5,10.2,0000.0,0000.78,0003.28,0000.36
2023-11-22 14:12:00,SystemResetWarning,0832.2,5.00,000.00,021.3,020.4,000.0,029.6,022.4,10.2,0000.0,0000.76,0003.08,0000.36
2023-11-22 14:13:00,SystemResetWarning,0832.1,5.00,000.00,021.3,020.4,000.0,029.6,022.5,10.2,0000.0,0000.71,0002.40,0000.36
2023-11-22 14:14:00,SystemResetWarning,0832.1,5.01,000.00,021.3,020.4,000.0,029.6,022.5,10.2,0000.0,0000.56,0001.74,0000.35
2023-11-22 14:15:00,SystemResetWarning,0832.0,5.00,000.00,021.3,020.4,000.0,029.6,022.5,10.2,0000.0,0000.49,0001.67,0000.34
2023-11-22 14:16:00,SystemResetWarning,0832.0,5.00,000.00,021.3,020.4,000.0,029.6,022.5,10.2,0000.0,0000.50,0001.68,0000.35
2023-11-22 14:17:00,SystemResetWarning,0832.0,5.00,000.00,021.3,020.4,000.0,029.6,022.5,10.2,0000.0,0000.48,0001.04,0000.35
2023-11-22 14:18:00,SystemResetWarning,0832.0,4.99,000.00,021.3,020.4,000.0,029.6,022.5,10.2,0000.0,0000.50,0001.06,0000.36
2023-11-22 14:19:00,SystemResetWarning,0832.1,5.00,000.00,021.3,020.4,000.0,029.6,022.5,10.2,0000.0,0000.52,0001.09,0000.38
2023-11-22 14:20:00,SystemResetWarning,0832.0,4.99,000.00,021.3,020.4,000.0,029.6,022.5,10.2,0000.0,0000.53,0001.21,0000.38
2023-11-22 14:21:00,SystemResetWarning,0832.1,5.00,000.00,021.3,020.4,000.0,029.6,022.5,10.1,0000.0,0000.56,0001.24,0000.39
2023-11-22 14:22:00,SystemResetWarning,0832.1,5.00,000.00,021.3,020.4,000.0,029.6,022.5,10.1,0000.0,0000.57,0001.31,0000.38
2023-11-22 14:23:00,SystemResetWarning,0832.1,5.01,000.00,021.3,020.4,000.0,029.6,022.5,10.1,0000.0,0000.58,0001.40,0000.37
2023-11-22 14:24:00,SystemResetWarning,0832.0,5.01,000.00,021.3,020.5,000.0,029.6,022.5,10.1,0000.0,0000.64,0001.51,0000.38
2023-11-22 14:25:00,SystemResetWarning,0832.0,5.01,000.00,021.3,020.5,000.0,029.6,022.6,10.1,0000.0,0000.67,0001.61,0000.39
2023-11-22 14:26:00,SystemResetWarning,0832.0,5.00,000.00,021.3,020.5,000.0,029.6,022.6,10.1,0000.0,0000.68,0001.58,0000.40
2023-11-22 14:27:00,SystemResetWarning,0832.1,5.00,000.00,021.3,020.5,000.0,029.6,022.6,10.1,0000.0,0000.66,0001.48,0000.40
2023-11-22 14:28:00,SystemResetWarning,0832.1,5.00,000.00,021.3,020.6,000.0,029.6,022.7,10.1,0000.0,0000.64,0001.43,0000.40
2023-11-22 14:29:00,SystemResetWarning,0832.1,5.00,000.00,021.4,020.6,000.0,029.6,022.6,10.1,0000.0,0000.65,0001.78,0000.39
2023-11-22 14:30:00,SystemResetWarning,0832.1,5.00,000.00,021.4,020.6,000.0,029.6,022.7,10.1,0000.0,0000.64,0002.81,0000.39
2023-11-22 14:31:00,SystemResetWarning,0832.1,5.00,000.00,021.4,020.7,000.0,029.6,022.7,10.2,0000.0,0000.66,0002.75,0000.39
2023-11-22 14:32:00,SystemResetWarning,0832.2,5.00,000.00,021.4,020.7,000.0,029.6,022.7,10.2,0000.0,0000.64,0002.69,0000.39
2023-11-22 14:33:00,SystemResetWarning,0832.2,4.99,000.00,021.4,020.7,000.0,029.6,022.7,10.1,0000.0,0000.64,0002.67,0000.40
2023-11-22 14:34:00,SystemResetWarning,0832.2,5.00,000.00,021.4,020.7,000.0,029.7,022.7,10.2,0000.0,0000.63,0002.59,0000.40
2023-11-22 14:35:00,SystemResetWarning,0832.2,5.00,000.00,021.4,020.7,000.0,029.7,022.7,10.2,0000.0,0000.61,0002.54,0000.39
2023-11-22 14:36:00,SystemResetWarning,0832.1,5.00,000.00,021.5,020.7,000.0,029.7,022.8,10.1,0000.0,0000.59,0002.45,0000.39
2023-11-22 14:37:00,SystemResetWarning,0832.2,5.00,000.00,021.5,020.7,000.0,029.7,022.8,10.1,0000.0,0000.56,0002.27,0000.38
2023-11-22 14:38:00,SystemResetWarning,0832.2,5.00,000.00,021.5,020.8,000.0,029.7,022.8,10.0,0000.0,0000.57,0002.27,0000.39
2023-11-22 14:39:00,SystemResetWarning,0832.1,5.00,000.00,021.5,020.8,000.0,029.7,022.8,10.0,0000.0,0000.58,0002.30,0000.39
2023-11-22 14:40:00,SystemResetWarning,0832.2,5.01,000.00,021.5,020.8,000.0,029.7,022.8,10.1,0000.0,0000.56,0002.03,0000.39
2023-11-22 14:41:00,SystemResetWarning,0832.2,5.00,000.00,021.5,020.8,000.0,029.7,022.9,10.1,0000.0,0000.57,0000.92,0000.39
2023-11-22 14:42:00,SystemResetWarning,0832.2,5.00,000.00,021.6,020.9,000.0,029.7,022.9,10.1,0000.0,0000.55,0000.91,0000.38
2023-11-22 14:43:00,SystemResetWarning,0832.2,4.99,000.00,021.6,020.9,000.0,029.7,022.9,10.1,0000.0,0000.56,0000.96,0000.38
2023-11-22 14:44:00,SystemResetWarning,0832.2,4.99,000.00,021.6,020.9,000.0,029.8,023.0,10.1,0000.0,0000.54,0000.92,0000.38
2023-11-22 14:45:00,SystemResetWarning,0832.2,5.00,000.00,021.6,021.0,000.0,029.8,023.0,10.1,0000.0,0000.54,0000.91,0000.38
2023-11-22 14:46:00,SystemResetWarning,0832.2,5.00,000.00,021.6,021.0,000.0,029.8,023.0,10.1,0000.0,0000.55,0001.78,0000.38
2023-11-22 14:47:00,SystemResetWarning,0832.2,5.00,000.00,021.7,021.0,000.0,029.8,023.0,10.3,0000.0,0000.52,0002.37,0000.37
2023-11-22 14:48:00,SystemResetWarning,0832.2,5.01,000.00,021.7,021.0,000.0,029.8,023.0,10.5,0000.0,0000.55,0003.46,0000.36
2023-11-22 14:49:00,SystemResetWarning,0832.2,5.01,000.00,021.7,021.0,000.0,029.8,023.0,10.3,0000.0,0000.56,0004.21,0000.36
2023-11-22 14:50:00,SystemResetWarning,0832.2,5.00,000.00,021.7,021.1,000.0,029.8,023.1,10.3,0000.0,0000.57,0004.69,0000.36
2023-11-22 14:51:00,SystemResetWarning,0832.1,4.99,000.00,021.7,021.1,000.0,029.8,023.1,10.5,0000.0,0000.58,0004.72,0000.36
2023-11-22 14:52:00,SystemResetWarning,0832.1,5.00,000.00,021.8,021.1,000.0,029.9,023.1,10.4,0000.0,0000.58,0004.70,0000.37
2023-11-22 14:53:00,SystemResetWarning,0832.2,5.00,000.00,021.8,021.1,000.0,029.9,023.1,10.4,0000.0,0000.59,0005.86,0000.38
2023-11-22 14:54:00,SystemResetWarning,0832.2,5.01,000.00,021.8,021.1,000.0,029.9,023.2,10.5,0000.0,0000.60,0006.09,0000.38
2023-11-22 14:55:00,SystemResetWarning,0832.2,5.00,000.00,021.8,021.2,000.0,029.9,023.2,10.5,0000.0,0000.61,0007.33,0000.39
2023-11-22 14:56:00,SystemResetWarning,0832.2,5.00,000.00,021.8,021.2,000.0,029.9,023.2,10.5,0000.0,0000.62,0007.55,0000.39
2023-11-22 14:57:00,SystemResetWarning,0832.2,4.99,000.00,021.9,021.2,000.0,030.0,023.2,10.5,0000.0,0000.61,0007.57,0000.40
2023-11-22 14:58:00,SystemResetWarning,0832.2,5.01,000.00,021.9,021.2,000.0,030.0,023.2,10.4,0000.0,0000.62,0007.23,0000.40
2023-11-22 14:59:00,SystemResetWarning,0832.2,5.00,000.00,021.9,021.3,000.0,030.0,023.3,10.2,0000.0,0000.63,0006.18,0000.41
